Location: Decatur Area Astronomy Club
(40.0275°N, 88.7810°W)
Time: 23:05:37
(UTC-06:00)

Amateur Radio Satellites - All Passes

Search period start: 22 February 2017 22:35
Search period end: 23 February 2017 22:35
Location: Decatur Area Astronomy Club, 40.0275°N, 88.7810°W

Satellite Date Start Highest point End Downlink Frequencies (MHz)
Time Altitude Azimuth
SO-50 22 Feb 22:41:50 22:46:32 82° 119° (ESE) 22:51:10 436.795
ESTCUBE 1 22 Feb 22:44:37 22:49:08 75° 257° (WSW) 22:53:40 437.505/2401.250
50 SAT 22 Feb 22:59:39 23:02:45 30° 71° (ENE) 23:05:51 437.505
DUCHIFAT 1 22 Feb 23:04:19 23:07:49 24° 95° (E) 23:11:17 145.980
EO-79 22 Feb 23:11:19 23:15:16 35° 98° (E) 23:19:12 145.935-145.965
UNISAT 6 22 Feb 23:12:41 23:16:15 22° 294° (WNW) 23:19:46 437.425
TIGRISAT 22 Feb 23:13:51 23:17:28 22° 293° (WNW) 23:21:04 435.000
VELOX 1 22 Feb 23:22:42 23:27:05 86° 256° (WSW) 23:31:30 145.980
DX 1 22 Feb 23:24:10 23:28:15 42° 71° (ENE) 23:32:20 434.975-435.025
RS-15 22 Feb 23:24:49 23:34:05 23° 15° (NNE) 23:43:14 29.354- 29.394
POLYITAN 1 22 Feb 23:27:42 23:31:57 55° 100° (E) 23:36:09 437.675
AIST 2D 22 Feb 23:29:36 23:33:10 70° 284° (WNW) 23:36:41 435.315
NANOSAT C BR1 22 Feb 23:30:00 23:34:12 53° 100° (E) 23:38:21 145.865
QB50P2 22 Feb 23:30:31 23:34:48 64° 101° (ESE) 23:39:02 145.880/145.840
O/OREOS (USA 219) 22 Feb 23:33:58 23:38:15 45° 296° (WNW) 23:42:36 437.305
UKube-1 22 Feb 23:42:02 23:46:09 47° 72° (ENE) 23:50:18 .
FO-29 22 Feb 23:43:17 23:50:28 44° 294° (WNW) 23:57:07 435.910
SPROUT 22 Feb 23:52:42 23:56:49 49° 260° (W) 00:00:58 437.525
BUGSAT 1 23 Feb 00:12:38 00:16:46 49° 100° (E) 00:20:54 437.445
SO-50 23 Feb 00:24:51 00:27:34 15° 319° (NW) 00:30:16 436.795
BEESAT 23 Feb 00:25:18 00:26:27 11° 60° (ENE) 00:27:37 436.000
50 SAT 23 Feb 00:33:59 00:35:57 14° 267° (W) 00:37:56 437.505
Oscar 19 23 Feb 00:35:39 00:39:50 25° 95° (E) 00:44:00 437.125/150
DUCHIFAT 1 23 Feb 00:39:48 00:43:26 27° 291° (WNW) 00:47:01 145.980
EO-79 23 Feb 00:47:40 00:50:47 20° 293° (WNW) 00:53:52 145.935-145.965
Gurwin Techsat 1B 23 Feb 00:58:01 01:02:11 23° 94° (E) 01:06:20 435.225
DX 1 23 Feb 01:01:55 01:04:36 16° 267° (W) 01:07:19 434.975-435.025
POLYITAN 1 23 Feb 01:05:08 01:07:15 14° 296° (WNW) 01:09:21 437.675
NANOSAT C BR1 23 Feb 01:07:17 01:09:26 14° 296° (WNW) 01:11:35 145.865
QB50P2 23 Feb 01:08:30 01:10:01 12° 297° (WNW) 01:11:33 145.880/145.840
MOZHAYETS 4 23 Feb 01:11:32 01:12:11 10° 61° (ENE) 01:12:50
PCSat 23 Feb 01:15:10 01:20:23 45° 56° (NE) 01:25:33 145.827
UKube-1 23 Feb 01:20:08 01:22:26 14° 268° (W) 01:24:44 .
RS-15 23 Feb 01:38:34 01:50:34 52° 46° (NE) 02:02:05 29.354- 29.394
BUGSAT 1 23 Feb 01:49:24 01:51:42 14° 295° (WNW) 01:54:01 437.445
ITUPSAT 1 23 Feb 01:50:12 01:55:00 76° 75° (ENE) 01:59:50 437.325
BEESAT 23 Feb 01:58:42 02:03:29 86° 255° (WSW) 02:08:19 436.000
Oscar 19 23 Feb 02:14:31 02:19:13 37° 291° (WNW) 02:23:53 437.125/150
Gurwin Techsat 1B 23 Feb 02:37:16 02:42:17 43° 290° (WNW) 02:47:16 435.225
ITAMSAT 1 23 Feb 02:41:57 02:46:51 39° 98° (E) 02:51:42 435.822/435.867
STARS 23 Feb 02:43:44 02:44:57 11° 61° (ENE) 02:46:11 437.465
MOZHAYETS 4 23 Feb 02:43:58 02:48:37 85° 258° (WSW) 02:53:17
AO-7 23 Feb 02:54:05 03:01:46 40° 99° (E) 03:09:23 .
PCSat 23 Feb 02:59:08 03:03:29 25° 253° (WSW) 03:07:49 145.827
ITUPSAT 1 23 Feb 03:32:18 03:33:21 11° 271° (W) 03:34:23 437.325
KKS-1 23 Feb 03:34:43 03:39:08 90° 56° (ENE) 03:43:35 437.445
CUBESAT XI-V 23 Feb 03:36:10 03:40:42 53° 73° (ENE) 03:45:14 437.345
RS-15 23 Feb 03:51:31 04:03:07 52° 250° (WSW) 04:14:14 29.354- 29.394
M-CUBED/EXP-1 PRIME 23 Feb 04:02:55 04:06:13 71° 72° (ENE) 04:09:28 437.505
STARS 23 Feb 04:16:20 04:20:40 72° 257° (WSW) 04:25:04 437.465
ITAMSAT 1 23 Feb 04:21:49 04:26:05 26° 295° (WNW) 04:30:21 435.822/435.867
AO-85 23 Feb 04:24:41 04:29:12 57° 119° (ESE) 04:33:25 145.980
AO-7 23 Feb 04:46:46 04:54:33 46° 297° (WNW) 05:02:18 .
CUTE-I 23 Feb 05:11:06 05:14:46 18° 92° (E) 05:18:26 437.470
CUBESAT XI-V 23 Feb 05:15:43 05:18:22 15° 269° (W) 05:21:00 437.345
KAITUO 1B 23 Feb 05:21:36 05:24:03 16° 93° (E) 05:26:28 145.475/437.950
XW-2F 23 Feb 05:21:38 05:24:28 20° 94° (E) 05:27:17 145.980 - 146.000
DOVE 4 23 Feb 05:23:49 05:27:55 29° 96° (E) 05:32:12 437.250
XW-2D 23 Feb 05:24:28 05:27:32 23° 95° (E) 05:30:35 145.860 - 145.880
XW-2B 23 Feb 05:29:20 05:32:33 25° 96° (E) 05:35:44 145.730 - 145.750
BEESAT 3 23 Feb 05:32:16 05:34:21 14° 109° (ESE) 05:36:27 437.485
XW-2C 23 Feb 05:37:39 05:41:08 32° 97° (E) 05:44:34 145.795 - 145.815
LilacSat-2 23 Feb 05:51:29 05:55:16 51° 100° (E) 05:58:59 437.200
NUDT-PHONESAT 23 Feb 05:58:44 06:02:25 48° 99° (E) 06:06:02 437.300
BEESAT 2 23 Feb 06:05:02 06:06:53 13° 109° (ESE) 06:08:45 435.950
AO-85 23 Feb 06:06:54 06:09:53 17° 314° (NW) 06:12:45 145.980
STRAND 1 23 Feb 06:12:38 06:17:41 61° 73° (ENE) 06:22:46 437.568
HO-68 23 Feb 06:15:44 06:20:25 18° 91° (E) 06:25:04 435.675
XW-2A 23 Feb 06:20:13 06:22:08 14° 93° (E) 06:24:03 145.665 - 145.685
CUTE-I 23 Feb 06:49:54 06:55:08 55° 288° (WNW) 07:00:22 437.470
CUBEBUG 2 23 Feb 06:53:31 06:55:57 14° 90° (E) 06:58:22 437.445
KAITUO 1B 23 Feb 06:54:47 06:58:08 30° 289° (WNW) 07:01:27 145.475/437.950
XW-2F 23 Feb 06:55:23 06:58:37 26° 289° (WNW) 07:01:47 145.980 - 146.000
XW-2D 23 Feb 06:58:35 07:01:39 23° 291° (WNW) 07:04:41 145.860 - 145.880
CUTE 1.7 + AOD 2 23 Feb 07:00:26 07:04:14 32° 97° (E) 07:08:01 437.475
DOVE 4 23 Feb 07:01:33 07:05:31 28° 290° (WNW) 07:09:40 437.250
XW-2B 23 Feb 07:03:41 07:06:36 21° 291° (WNW) 07:09:30 145.730 - 145.750
BEESAT 3 23 Feb 07:07:46 07:11:32 46° 306° (NW) 07:15:22 437.485
XW-2C 23 Feb 07:12:34 07:15:04 17° 293° (WNW) 07:17:33 145.795 - 145.815
SO-50 23 Feb 07:13:52 07:18:19 58° 55° (NE) 07:22:43 436.795
LilacSat-2 23 Feb 07:27:46 07:29:04 11° 295° (WNW) 07:30:21 437.200
PRISM 23 Feb 07:34:30 07:37:08 17° 66° (ENE) 07:39:46 437.425
NUDT-PHONESAT 23 Feb 07:34:36 07:35:54 11° 295° (WNW) 07:37:11 437.300
UWE-3 23 Feb 07:35:13 07:38:59 24° 94° (E) 07:42:41 435.000/436.395/437.385
Tancredo 1 23 Feb 07:37:40 07:40:09 20° 132° (SE) 07:42:39 437.200
BEESAT 2 23 Feb 07:40:20 07:44:11 51° 305° (NW) 07:48:06 435.950
XW-2A 23 Feb 07:51:56 07:54:59 29° 288° (WNW) 07:58:01 145.665 - 145.685
STRAND 1 23 Feb 07:54:20 07:57:15 15° 269° (W) 08:00:12 437.568
AAUSAT CUBESAT 2 23 Feb 07:59:06 08:03:06 48° 99° (E) 08:07:03 437.432
HO-68 23 Feb 08:01:39 08:08:48 78° 288° (WNW) 08:15:56 435.675
ZACube-1 23 Feb 08:01:54 08:05:45 26° 95° (E) 08:09:32 437.345
SEEDS 23 Feb 08:02:18 08:06:28 72° 283° (WNW) 08:10:35 437.485
O/OREOS (USA 219) 23 Feb 08:05:24 08:09:25 29° 60° (ENE) 08:13:25 437.305
FO-29 23 Feb 08:10:58 08:15:31 18° 55° (NE) 08:20:18 435.910
CUBEBUG 2 23 Feb 08:28:13 08:32:55 60° 286° (WNW) 08:37:34 437.445
UNISAT 6 23 Feb 08:33:33 08:37:28 31° 69° (ENE) 08:41:30 437.425
TIGRISAT 23 Feb 08:34:42 08:38:34 29° 69° (ENE) 08:42:31 435.000
CUTE 1.7 + AOD 2 23 Feb 08:36:44 08:39:52 20° 292° (WNW) 08:42:57 437.475
ISS 23 Feb 08:41:22 08:44:40 88° 328° (NNW) 08:47:59 437.550
AO-73 23 Feb 08:51:20 08:55:55 84° 103° (ESE) 09:00:24 145.935
SO-50 23 Feb 08:55:54 08:58:16 14° 251° (WSW) 09:00:37 436.795
Oscar 11 23 Feb 09:01:16 09:05:37 87° 279° (W) 09:09:55 .
PRISM 23 Feb 09:08:19 09:12:08 38° 262° (W) 09:15:56 437.425
UWE-3 23 Feb 09:11:15 09:15:27 34° 290° (WNW) 09:19:36 435.000/436.395/437.385
Tancredo 1 23 Feb 09:13:08 09:16:15 42° 329° (NNW) 09:19:22 437.200
YUBILEINY 23 Feb 09:25:10 09:32:44 33° 84° (E) 09:40:16 435.215
AAUSAT CUBESAT 2 23 Feb 09:36:03 09:38:08 14° 295° (WNW) 09:40:11 437.432
ZACube-1 23 Feb 09:38:02 09:41:58 29° 291° (WNW) 09:45:49 437.345
O/OREOS (USA 219) 23 Feb 09:44:52 09:48:43 27° 257° (WSW) 09:52:33 437.305
HO-68 23 Feb 09:51:38 09:55:23 15° 307° (NW) 09:59:08 435.675
FO-29 23 Feb 09:52:20 09:59:18 86° 74° (ENE) 10:07:02 435.910
DELFI C3 23 Feb 09:53:26 09:57:21 66° 284° (WNW) 10:01:13 145.870
DUCHIFAT 1 23 Feb 09:56:06 09:58:51 17° 66° (ENE) 10:01:37 145.980
EO-79 23 Feb 10:03:18 10:06:43 24° 68° (ENE) 10:10:10 145.935-145.965
AIST 2D 23 Feb 10:03:19 10:06:33 34° 73° (ENE) 10:09:49 435.315
UNISAT 6 23 Feb 10:10:33 10:14:10 24° 266° (W) 10:17:53 437.425
TIGRISAT 23 Feb 10:11:31 10:15:12 25° 265° (W) 10:18:59 435.000
ISS 23 Feb 10:19:11 10:21:32 18° 340° (NNW) 10:23:53 437.550
POLYITAN 1 23 Feb 10:19:29 10:23:23 37° 71° (ENE) 10:27:19 437.675
NANOSAT C BR1 23 Feb 10:21:20 10:25:09 35° 71° (ENE) 10:29:01 145.865
QB50P2 23 Feb 10:22:14 10:26:13 42° 72° (ENE) 10:30:16 145.880/145.840
AO-73 23 Feb 10:31:07 10:31:24 10° 299° (WNW) 10:31:41 145.935
ESTCUBE 1 23 Feb 10:38:16 10:41:52 23° 95° (E) 10:45:27 437.505/2401.250
Tancredo 1 23 Feb 10:51:31 10:53:12 13° 347° (NNW) 10:54:52 437.200
BUGSAT 1 23 Feb 11:01:49 11:05:22 30° 70° (ENE) 11:08:57 437.445
VELOX 1 23 Feb 11:14:13 11:17:17 18° 93° (E) 11:20:21 145.980
YUBILEINY 23 Feb 11:20:34 11:29:06 52° 283° (WNW) 11:37:41 435.215
DUCHIFAT 1 23 Feb 11:30:16 11:34:12 39° 262° (W) 11:38:10 145.980
AIST 2D 23 Feb 11:38:14 11:39:55 13° 268° (W) 11:41:36 435.315
EO-79 23 Feb 11:38:47 11:42:22 27° 264° (W) 11:45:59 145.935-145.965
SPROUT 23 Feb 11:39:11 11:42:54 28° 96° (E) 11:46:36 437.525
FO-29 23 Feb 11:40:55 11:45:17 17° 274° (W) 11:49:55 435.910
Oscar 19 23 Feb 11:51:42 11:56:20 35° 69° (ENE) 12:00:58 437.125/150
POLYITAN 1 23 Feb 11:56:25 11:59:17 18° 267° (W) 12:02:11 437.675
50 SAT 23 Feb 11:57:50 12:01:04 35° 99° (E) 12:04:16 437.505
ISS 23 Feb 11:58:00 11:59:02 11° 1° (N) 12:00:04 437.550
NANOSAT C BR1 23 Feb 11:58:02 12:00:58 18° 267° (W) 12:03:55 145.865
QB50P2 23 Feb 11:59:42 12:02:13 15° 268° (W) 12:04:44 145.880/145.840
AO-7 23 Feb 12:06:47 12:09:13 12° 43° (NE) 12:11:39 .
ESTCUBE 1 23 Feb 12:14:44 12:18:41 31° 290° (WNW) 12:22:36 437.505/2401.250
Gurwin Techsat 1B 23 Feb 12:18:16 12:23:01 35° 68° (ENE) 12:27:48 435.225
Tancredo 1 23 Feb 12:29:23 12:30:37 12° 8° (N) 12:31:51 437.200
BUGSAT 1 23 Feb 12:37:47 12:40:45 20° 266° (W) 12:43:46 437.445
DX 1 23 Feb 12:48:32 12:52:55 89° 96° (E) 12:57:16 434.975-435.025
VELOX 1 23 Feb 12:49:46 12:53:51 38° 289° (WNW) 12:57:57 145.980
AO-85 23 Feb 12:56:44 13:00:21 35° 52° (NE) 13:04:00 145.980
UKube-1 23 Feb 13:05:13 13:09:34 84° 285° (WNW) 13:13:52 .
SPROUT 23 Feb 13:15:11 13:18:41 24° 292° (WNW) 13:22:10 437.525
Oscar 19 23 Feb 13:31:18 13:35:39 27° 264° (W) 13:40:01 437.125/150
50 SAT 23 Feb 13:32:19 13:33:52 13° 294° (WNW) 13:35:24 437.505
ISS 23 Feb 13:34:02 13:36:31 19° 21° (NNE) 13:38:58 437.550
AO-7 23 Feb 13:52:04 14:00:03 52° 65° (ENE) 14:08:04 .
ITUPSAT 1 23 Feb 13:52:12 13:55:44 20° 94° (E) 13:59:16 437.325
Gurwin Techsat 1B 23 Feb 13:58:24 14:02:57 29° 264° (W) 14:07:33 435.225
ITAMSAT 1 23 Feb 13:59:07 14:04:11 56° 72° (ENE) 14:09:18 435.822/435.867
BEESAT 23 Feb 13:59:59 14:03:55 25° 95° (E) 14:07:49 436.000
Tancredo 1 23 Feb 14:04:51 14:07:44 28° 28° (NNE) 14:10:34 437.200
AO-85 23 Feb 14:37:46 14:40:29 18° 248° (WSW) 14:43:12 145.980
MOZHAYETS 4 23 Feb 14:40:16 14:43:56 23° 94° (E) 14:47:35
ISS 23 Feb 15:10:00 15:13:17 77° 221° (SW) 15:16:32 437.550
BEESAT 3 23 Feb 15:24:56 15:28:58 78° 58° (ENE) 15:32:57 437.485
KKS-1 23 Feb 15:27:11 15:30:15 18° 94° (E) 15:33:16 437.445
ITUPSAT 1 23 Feb 15:29:13 15:33:42 41° 290° (WNW) 15:38:11 437.325
CUBESAT XI-V 23 Feb 15:34:57 15:37:13 13° 91° (E) 15:39:27 437.345
BEESAT 23 Feb 15:37:26 15:41:42 33° 291° (WNW) 15:45:58 436.000
ITAMSAT 1 23 Feb 15:40:39 15:43:59 17° 268° (W) 15:47:21 435.822/435.867
Tancredo 1 23 Feb 15:41:05 15:44:01 33° 224° (SW) 15:46:56 437.200
AO-7 23 Feb 15:45:34 15:53:00 35° 262° (W) 16:00:29 .
PCSat 23 Feb 15:56:02 16:01:10 46° 112° (ESE) 16:06:20 145.827
BEESAT 2 23 Feb 15:58:26 16:02:30 73° 58° (ENE) 16:06:31 435.950
RS-15 23 Feb 16:02:23 16:12:06 31° 103° (ESE) 16:22:06 29.354- 29.394
STARS 23 Feb 16:06:53 16:10:16 21° 95° (E) 16:13:39 437.465
XW-2D 23 Feb 16:06:57 16:08:12 11° 65° (ENE) 16:09:27 145.860 - 145.880
XW-2B 23 Feb 16:11:30 16:13:09 13° 65° (ENE) 16:14:49 145.730 - 145.750
MOZHAYETS 4 23 Feb 16:17:00 16:21:07 33° 290° (WNW) 16:25:12
XW-2C 23 Feb 16:19:17 16:21:37 16° 67° (ENE) 16:23:59 145.795 - 145.815
DOVE 4 23 Feb 16:29:34 16:32:53 24° 69° (ENE) 16:36:13 437.250
CUTE-I 23 Feb 16:32:01 16:36:32 29° 66° (ENE) 16:41:05 437.470
LilacSat-2 23 Feb 16:33:00 16:36:06 23° 70° (ENE) 16:39:14 437.200
NUDT-PHONESAT 23 Feb 16:38:04 16:40:55 21° 69° (ENE) 16:43:46 437.300
HO-68 23 Feb 16:45:57 16:49:28 14° 52° (NE) 16:52:57 435.675
KKS-1 23 Feb 17:02:45 17:06:57 41° 289° (WNW) 17:11:08 437.445
CUBESAT XI-V 23 Feb 17:10:25 17:14:56 56° 287° (WNW) 17:19:24 437.345
M-CUBED/EXP-1 PRIME 23 Feb 17:15:09 17:18:51 57° 107° (ESE) 17:22:51 437.505
KAITUO 1B 23 Feb 17:33:20 17:37:08 78° 258° (WSW) 17:40:58 145.475/437.950
XW-2F 23 Feb 17:34:43 17:38:31 62° 260° (W) 17:42:20 145.980 - 146.000
XW-2D 23 Feb 17:38:10 17:41:55 52° 260° (W) 17:45:42 145.860 - 145.880
PCSat 23 Feb 17:40:12 17:44:45 27° 310° (NW) 17:49:19 145.827
STARS 23 Feb 17:42:40 17:46:39 34° 290° (WNW) 17:50:39 437.465
XW-2B 23 Feb 17:43:13 17:46:55 46° 261° (W) 17:50:40 145.730 - 145.750
XW-2C 23 Feb 17:51:58 17:55:31 36° 262° (W) 17:59:06 145.795 - 145.815
CUTE 1.7 + AOD 2 23 Feb 17:52:40 17:55:59 22° 68° (ENE) 17:59:19 437.475
CUBEBUG 2 23 Feb 17:52:48 17:53:38 10° 61° (ENE) 17:54:28 437.445
DOVE 4 23 Feb 18:07:04 18:10:31 25° 265° (W) 18:13:59 437.250
LilacSat-2 23 Feb 18:07:10 18:10:18 23° 265° (W) 18:13:27 437.200
RS-15 23 Feb 18:11:28 18:23:25 76° 304° (NW) 18:35:52 29.354- 29.394
NUDT-PHONESAT 23 Feb 18:11:34 18:14:41 25° 264° (W) 18:17:52 437.300
CUTE-I 23 Feb 18:11:35 18:16:25 35° 263° (W) 18:21:19 437.470
XW-2A 23 Feb 18:22:02 18:25:24 74° 76° (ENE) 18:28:49 145.665 - 145.685
STRAND 1 23 Feb 18:24:32 18:28:30 22° 94° (E) 18:32:25 437.568
HO-68 23 Feb 18:28:50 18:35:58 74° 71° (ENE) 18:43:08 435.675
UWE-3 23 Feb 18:32:03 18:35:01 18° 65° (ENE) 18:38:04 435.000/436.395/437.385
AAUSAT CUBESAT 2 23 Feb 18:48:34 18:52:10 29° 70° (ENE) 18:55:47 437.432
M-CUBED/EXP-1 PRIME 23 Feb 18:51:45 18:52:58 11° 299° (WNW) 18:54:13 437.505
SEEDS 23 Feb 18:52:42 18:56:55 69° 76° (ENE) 19:01:09 437.485
ZACube-1 23 Feb 18:57:20 19:00:32 20° 66° (ENE) 19:03:47 437.345
CUBEBUG 2 23 Feb 19:25:07 19:29:30 79° 258° (WSW) 19:34:04 437.445
CUTE 1.7 + AOD 2 23 Feb 19:27:51 19:31:38 30° 264° (W) 19:35:27 437.475
YUBILEINY 23 Feb 19:36:57 19:41:35 15° 60° (ENE) 19:46:11 435.215
AO-73 23 Feb 19:45:35 19:49:55 58° 74° (ENE) 19:54:22 145.935
Oscar 11 23 Feb 19:54:52 19:59:10 65° 75° (ENE) 20:03:30 .
STRAND 1 23 Feb 20:02:57 20:07:49 43° 290° (WNW) 20:12:39 437.568
UWE-3 23 Feb 20:06:53 20:11:05 43° 262° (W) 20:15:27 435.000/436.395/437.385
HO-68 23 Feb 20:19:23 20:24:18 20° 268° (W) 20:29:15 435.675
AAUSAT CUBESAT 2 23 Feb 20:24:25 20:27:38 21° 266° (W) 20:30:51 437.432
RS-15 23 Feb 20:28:19 20:38:28 29° 332° (NNW) 20:48:48 29.354- 29.394
ZACube-1 23 Feb 20:32:22 20:36:30 39° 263° (W) 20:40:45 437.345
DELFI C3 23 Feb 20:37:49 20:41:44 60° 75° (ENE) 20:45:38 145.870
PRISM 23 Feb 20:50:12 20:53:43 27° 97° (E) 20:57:12 437.425
FO-29 23 Feb 21:05:48 21:09:39 15° 84° (E) 21:13:20 435.910
AO-73 23 Feb 21:24:36 21:26:31 13° 270° (W) 21:28:28 145.935
SO-50 23 Feb 21:28:09 21:31:45 22° 112° (ESE) 21:35:20 436.795
YUBILEINY 23 Feb 21:31:12 21:39:59 77° 82° (E) 21:48:40 435.215
Oscar 11 23 Feb 21:34:48 21:35:42 11° 270° (W) 21:36:38 .
ESTCUBE 1 23 Feb 21:37:24 21:40:46 21° 67° (ENE) 21:44:08 437.505/2401.250
UNISAT 6 23 Feb 22:01:36 22:06:20 75° 102° (ESE) 22:10:59 437.425
TIGRISAT 23 Feb 22:02:29 22:07:13 71° 102° (ESE) 22:11:51 435.000
VELOX 1 23 Feb 22:11:27 22:14:06 16° 64° (ENE) 22:16:45 145.980
O/OREOS (USA 219) 23 Feb 22:16:58 22:21:02 36° 105° (ESE) 22:25:09 437.305
PRISM 23 Feb 22:25:41 22:28:51 22° 292° (WNW) 22:32:02 437.425
